* Astronomy

Members Login
Username 
 
Password 
    Remember Me  
Post Info TOPIC: Asteroid 2015 BL311


L

Posts: 131433
Date:
Asteroid 2015 BL311
Permalink  
 


Orbital elements:
2015 BL311                                          PHA, Earth MOID = 0.0098 AU
Epoch 2014 Dec. 9.0 TT = JDT 2457000.5                  MPC
M   1.26963              (2000.0)            P               Q
n   0.27240284     Peri.  134.71359     +0.99804010     -0.05944678
a   2.3568302      Node   228.70474     +0.04749730     +0.92298618
e   0.8432908      Incl.    1.49073     +0.04074265     +0.38021388
P   3.62           H   21.0           G   0.15           U   6

MPEC 2015 - B114



__________________
Page 1 of 1  sorted by
 
Quick Reply

Please log in to post quick replies.



Create your own FREE Forum
Report Abuse
Powered by ActiveBoard